DW6942 Weather Reports


Display with metric or nautical units.
time (UTC)temp
F
wind
direction
speed
MPH
gust
MPH
rain 1hr
in
rain 24hr
in
rain mn
in
humidity
%
barometer
mb
20260509211548 87 124 0.0 1.0 0.00 0.00 0.00 68 1009.2
20260509210052 88 141 1.0 3.0 0.00 0.00 0.00 66 1009.3
20260509204546 89 268 0.0 3.0 0.00 0.00 0.00 65 1009.5
20260509203041 90 241 0.0 3.0 0.00 0.00 0.00 65 1009.6
20260509201547 88 217 0.0 1.0 0.00 0.00 0.00 70 1009.8
20260509200039 88 225 0.0 0.0 0.00 0.00 0.00 69 1010.0
20260509194533 88 139 0.0 4.0 0.00 0.00 0.00 68 1010.3
20260509193032 87 51 0.0 4.0 0.00 0.00 0.00 69 1010.3
20260509191530 87 143 1.0 2.0 0.00 0.00 0.00 70 1010.5
20260509190028 88 221 0.0 3.0 0.00 0.00 0.00 68 1010.7
20260509184527 87 83 0.0 3.0 0.00 0.00 0.00 71 1010.9
20260509183024 86 167 0.0 3.0 0.00 0.00 0.00 70 1011.1
20260509181521 85 138 0.0 1.0 0.00 0.00 0.00 72 1011.4
20260509180020 85 131 1.0 3.0 0.00 0.00 0.00 72 1011.6
20260509174517 84 207 0.0 1.0 0.00 0.00 0.00 76 1011.8
20260509173016 83 219 0.0 3.0 0.00 0.00 0.00 75 1011.8
20260509171525 83 225 0.0 1.0 0.00 0.00 0.00 77 1011.6
20260509170024 82 107 0.0 0.0 0.00 0.00 0.00 79 1011.6
20260509164507 80 243 0.0 3.0 0.00 0.00 0.00 80 1011.8
20260509163008 79 148 0.0 4.0 0.00 0.00 0.00 83 1011.5
20260509161504 78 243 0.0 1.0 0.00 0.00 0.00 84 1011.9
20260509160100 78 260 0.0 3.0 0.00 0.00 0.00 85 1012.0
20260509154601 77 132 0.0 2.0 0.00 0.00 0.00 85 1012.2
20260509153100 77 136 0.0 4.0 0.00 0.00 0.00 86 1012.2
20260509151555 77 118 0.0 2.0 0.00 0.00 0.00 87 1012.2
20260509150052 76 119 0.0 3.0 0.00 0.00 0.00 88 1012.1
20260509144550 0 0.0 0.0 0.00 0.00 0.00 1012.0
20260509143045 0 0.0 0.0 0.00 0.00 0.00 1011.9
20260509141540 0 0.0 0.0 0.00 0.00 0.00 1011.4
20260509140036 0 0.0 0.0 0.00 0.00 0.00 1011.7
20260509134537 0 0.0 0.0 0.00 0.00 0.00 1011.7
20260509133027 0 0.0 0.0 0.00 0.00 0.00 1012.0
20260509131531 0 0.0 0.0 0.00 0.00 0.00 1012.3
20260509130019 0 0.0 0.0 0.00 0.00 0.00 1011.9
20260509124519 0 0.0 0.0 0.00 0.00 0.00 1012.0
20260509123009 0 0.0 0.0 0.00 0.00 0.00 1012.2
20260509121509 0 0.0 0.0 0.00 0.00 0.00 1011.8
20260509120100 0 0.0 0.0 0.00 0.00 0.00 1011.6
20260509114558 0 0.0 0.0 0.00 0.00 0.00 1011.4
20260509113056 0 0.0 0.0 0.00 0.00 0.00 1011.5
20260509111548 0 0.0 0.0 0.00 0.00 0.00 1011.5
20260509110042 0 0.0 0.0 0.00 0.00 0.00 1011.6
20260509104538 0 0.0 0.0 0.00 0.00 0.00 1011.8
20260509103034 0 0.0 0.0 0.00 0.00 0.00 1011.6
20260509101536 0 0.0 0.0 0.00 0.00 0.00 1011.4
20260509100026 0 0.0 0.0 0.00 0.00 0.00 1010.9
20260509094522 0 0.0 0.0 0.00 0.00 0.00 1010.7
20260509093019 0 220 0.0 0.0 0.00 0.00 0.00 89 1011.2
20260509091519 73 221 0.0 0.0 0.00 0.00 0.00 89 1011.2
20260509090014 73 221 0.0 0.0 0.00 0.00 0.00 89 1011.2
20260509084516 73 221 0.0 0.0 0.00 0.00 0.00 89 1011.5
20260509083018 73 221 0.0 0.0 0.00 0.00 0.00 89 1011.5
20260509081513 73 221 0.0 0.0 0.00 0.00 0.00 89 1011.5
20260509080012 73 221 0.0 0.0 0.00 0.00 0.00 89 1011.3
20260509074511 73 221 0.0 0.0 0.00 0.00 0.00 89 1011.3
20260509073011 73 175 0.0 0.0 0.00 0.00 0.00 89 1011.1
20260509071509 72 175 0.0 0.0 0.00 0.00 0.00 89 1011.3
20260509070008 72 145 0.0 1.0 0.00 0.00 0.00 89 1011.3
20260509064507 72 146 0.0 1.0 0.00 0.00 0.00 89 1011.4
20260509063006 72 212 0.0 0.0 0.00 0.00 0.00 89 1011.4
20260509061504 72 141 0.0 0.0 0.00 0.00 0.00 89 1011.8
20260509060003 72 135 0.0 0.0 0.00 0.00 0.00 89 1011.9
20260509054503 72 135 0.0 2.0 0.00 0.00 0.00 89 1011.9
20260509053003 72 212 0.0 1.0 0.00 0.00 0.00 89 1012.0
20260509051501 72 224 0.0 2.0 0.00 0.00 0.00 89 1012.0
20260509050108 72 116 0.0 3.0 0.00 0.00 0.00 89 1011.8
20260509044558 72 105 0.0 1.0 0.00 0.00 0.00 89 1012.1
20260509043105 72 136 0.0 1.0 0.00 0.00 0.00 88 1011.9
20260509041557 72 142 0.0 1.0 0.00 0.00 0.00 88 1012.0
20260509040056 72 139 0.0 2.0 0.00 0.00 0.00 88 1012.0
20260509034556 72 133 0.0 2.0 0.00 0.00 0.00 88 1011.6
20260509033056 72 235 0.0 3.0 0.00 0.00 0.00 88 1011.7
20260509031557 72 263 0.0 1.0 0.00 0.00 0.00 88 1011.6
20260509030053 72 124 0.0 1.0 0.00 0.00 0.00 87 1011.6
20260509024553 72 125 0.0 3.0 0.00 0.00 0.00 87 1011.3
20260509023052 72 189 0.0 0.0 0.00 0.00 0.00 87 1011.2
20260509021552 73 139 0.0 2.0 0.00 0.00 0.00 87 1011.0
20260509020051 73 131 0.0 3.0 0.00 0.00 0.00 87 1011.0
20260509014551 73 241 0.0 2.0 0.00 0.00 0.00 86 1010.8
20260509013055 73 158 0.0 2.0 0.00 0.00 0.00 85 1011.1
20260509011549 73 180 0.0 3.0 0.00 0.00 0.00 85 1010.8
20260509010048 74 164 1.0 6.0 0.00 0.00 0.00 84 1010.7
20260509004601 74 260 0.0 6.0 0.00 0.00 0.00 83 1010.6
20260509003046 75 181 0.0 6.0 0.00 0.00 0.00 83 1010.6
20260509001551 75 215 1.0 5.0 0.00 0.00 0.00 82 1010.9
20260509000045 76 119 0.0 1.0 0.00 0.00 0.00 81 1010.9
20260508234544 76 240 0.0 2.0 0.00 0.00 0.00 81 1010.8
20260508233043 76 122 0.0 3.0 0.00 0.00 0.00 81 1011.0
20260508231542 76 231 1.0 5.0 0.00 0.00 0.00 81 1011.0
20260508230041 76 219 0.0 5.0 0.00 0.00 0.00 80 1010.9
20260508224548 76 134 0.0 4.0 0.00 0.00 0.00 80 1010.9
20260508223048 77 281 1.0 4.0 0.00 0.00 0.00 79 1010.9
20260508221539 77 238 2.0 4.0 0.00 0.00 0.00 79 1010.8
20260508220037 77 193 0.0 1.0 0.00 0.00 0.00 79 1011.1
20260508214553 77 266 0.0 2.0 0.00 0.00 0.00 78 1011.1
20260508213035 78 128 0.0 4.0 0.00 0.00 0.00 78 1011.1